Starlink 11554

operational
NORAD ID: 62833 Int'l Des: 2025-019 Owner: SPXS Country: US Constellation: starlink
LEOCIRCULAR

关于 Starlink 11554

正在加载描述...

实时位置

正在加载3D地球...

即将过境

高度历史

Altitude vs Time

uPlot chart will show altitude changes over time

两行轨道根数

1 62833U 25019E 25349.67295783 .00178804 00000-0 13639-2 0 9991
2 62833 42.9995 92.7168 0001615 291.0489 69.0206 15.70897665 50665
Epoch: Dec 15, 2025 • Age: 24 hours

当前状态

高度 356.3 km
速度 7.70 km/s
星下点 -10.47°S, 102.2°E
发射日期 Jan 27, 2025
运行时间 0.8 years
类型 internet

技术详情

分类 Payload
质量 960.00 kg
干质量 910.00 kg
总质量 960.00 kg
长度 0.30 m
直径 4.10 m
跨度 29.00 m
形状 Box + pan
制造商 SPXS
平台类型 Starlink V2MD
阶段状态 In Orbit
所有者/国家 SPXS/US

大型星座

Loading constellations...